Change the Weather History Date:

Thursday, February 28, 2013

  Actual Average Record
Temperature  
Mean Temperature 46 °F -  
Max Temperature 56 °F 64 °F 79 °F (2011)
Min Temperature 35 °F 39 °F 17 °F (2002)
Degree Days  
Heating Degree Days 20    
Moisture  
Dew Point 32 °F    
Average Humidity 57    
Maximum Humidity 93    
Minimum Humidity 41    
Precipitation  
Precipitation 0.00 in - - ()
Sea Level Pressure  
Sea Level Pressure 29.98 in    
Wind  
Wind Speed 9 mph (WNW)    
Max Wind Speed 17 mph    
Max Gust Speed 23 mph    
Visibility 10 miles    
Events      
Averages and records for this station are not official NWS values.
T = Trace of Precipitation, MM = Missing Value Source: NWS Daily Summary

Daily Weather History Graph

Daily Weather History Graph

Search for Another Location

Airport or City:

Trip Planner

Search our weather history database for the weather conditions in past years. The results will help you decide how hot, cold, wet, or windy it might be!

Date:

Astronomy

Feb. 28, 2013 Rise Set
Actual Time 7:08 AM EST 6:36 PM EST
Civil Twilight 6:43 AM EST 7:01 PM EST
Nautical Twilight 6:15 AM EST 7:30 PM EST
Astronomical Twilight 5:46 AM EST 7:58 PM EST
Moon 9:47 PM EST (2/28) 8:30 AM EST (2/28)
Length of Visible Light 12h 17m
Length of Day
11h 28m
Waning Gibbous, 91% of the Moon is Illuminated
Feb 28
Waning Gibbous
Mar 4
Last Quarter
Mar 11
New
Mar 19
First Quarter
Mar 27
Full

Hourly Weather History & Observations

Time (EST) Temp. Windchill Dew Point Humidity Pressure Visibility Wind Dir Wind Speed Gust Speed Precip Events Conditions
6:55 AM 35.1 °F - 32.5 °F 91% 29.97 in 10.0 mi Calm Calm - N/A   Clear
7:55 AM 35.4 °F - 33.6 °F 93% 29.98 in 10.0 mi Variable 2.3 mph - N/A   Clear
8:55 AM 43.9 °F 37.2 °F 35.2 °F 72% 30.00 in 10.0 mi WNW 13.8 mph - N/A   Clear
8:58 AM 43.9 °F 36.8 °F 35.2 °F 72% 29.99 in 10.0 mi WNW 15.0 mph - N/A   Clear
9:58 AM 47.7 °F - 33.4 °F 58% 30.00 in 10.0 mi WNW 11.5 mph 17.3 mph N/A   Clear
10:30 AM 50.0 °F - 32.0 °F 50% 29.97 in 10.0 mi West 12.7 mph 21.9 mph N/A   Clear
10:40 AM 50.0 °F - 32.0 °F 50% 29.98 in 10.0 mi WNW 17.3 mph 21.9 mph N/A   Partly Cloudy
10:56 AM 51.3 °F - 31.8 °F 47% 29.98 in 10.0 mi West 15.0 mph 23.0 mph N/A   Clear
11:58 AM 53.1 °F - 32.0 °F 45% 29.99 in 10.0 mi WNW 8.1 mph 17.3 mph N/A   Clear
12:58 PM 54.9 °F - 32.5 °F 43% 29.97 in 10.0 mi WNW 12.7 mph 20.7 mph N/A   Clear
1:58 PM 56.3 °F - 33.3 °F 42% 29.95 in 10.0 mi West 11.5 mph 19.6 mph N/A   Clear
2:58 PM 55.6 °F - 32.0 °F 41% 29.95 in 10.0 mi West 9.2 mph 19.6 mph N/A   Partly Cloudy
3:58 PM 54.1 °F - 31.6 °F 42% 29.95 in 10.0 mi WNW 11.5 mph 21.9 mph N/A   Partly Cloudy
4:58 PM 53.6 °F - 32.0 °F 44% 29.95 in 10.0 mi NW 16.1 mph 20.7 mph N/A   Clear
5:58 PM 51.4 °F - 30.6 °F 45% 29.97 in 10.0 mi WNW 10.4 mph - N/A   Scattered Clouds
6:58 PM 49.1 °F - 31.1 °F 50% 29.99 in 10.0 mi West 5.8 mph - N/A   Partly Cloudy
7:58 PM 42.1 °F 36.6 °F 31.5 °F 66% 29.99 in 10.0 mi NW 9.2 mph - N/A   Clear
8:58 PM 45.5 °F 38.6 °F 29.8 °F 54% 30.00 in 10.0 mi NNW 16.1 mph - N/A   Clear
9:58 PM 42.8 °F 36.6 °F 28.8 °F 58% 30.03 in 10.0 mi NW 11.5 mph - N/A   Clear
10:58 PM 41.2 °F 35.5 °F 28.2 °F 60% 30.03 in 10.0 mi NW 9.2 mph - N/A   Clear
11:58 PM 39.6 °F 34.0 °F 28.9 °F 66% 30.02 in 10.0 mi NW 8.1 mph - N/A   Partly Cloudy